Location: Carabito
(9.8355°N, 67.9249°W)
Time: 00:28:05
(UTC+00:00)

Cosmos 1939 Rocket - Pass Details

Date: 23 May 2024
Orbit: 515 x 557 km, 97.4° (Epoch: 15 June)

Event Time Altitude Azimuth Distance (km) Brightness Sun altitude
Rises 08:48:15 0° 13° (NNE) 2,727 6.9 -19.3°
Reaches altitude 10° 08:50:23 10° 14° (NNE) 1,835 6.0 -18.8°
Maximum altitude 08:54:21 78° 100° (E) 571 2.9 -17.9°
Enters shadow 08:57:28 16° 186° (S) 1,478 4.7 -17.2°
